Location: Newark
(39.9267°N, 1.8017°W)
Time: 00:10:44
(UTC+00:00)

ISS - Visible Passes

Search period start: 25 March 2019 00:00
Search period end: 04 April 2019 00:00
Orbit: 408 x 411 km, 51.6° (Epoch: 24 March)

Date Brightness Start Highest point End Pass type
(mag) Time Alt. Az. Time Alt. Az. Time Alt. Az.
25 Mar -2.0 19:14:28 10° W 19:17:26 31° NNW 19:20:26 10° NE visible
25 Mar -0.6 20:53:27 10° NNW 20:54:25 12° NNW 20:54:25 12° NNW visible
26 Mar -1.0 20:01:59 10° NW 20:03:52 14° NNW 20:05:46 10° NNE visible
27 Mar -1.3 19:10:34 10° WNW 19:12:57 18° NNW 19:15:20 10° NNE visible
27 Mar -0.7 20:49:36 10° NNW 20:50:13 11° N 20:50:13 11° N visible
28 Mar -0.9 19:58:23 10° NNW 19:59:33 11° N 20:00:43 10° NNE visible
29 Mar -1.0 19:06:56 10° NW 19:08:32 13° NNW 19:10:09 10° NNE visible
29 Mar -0.8 20:44:49 10° NNW 20:45:43 12° N 20:45:43 12° N visible
30 Mar -1.0 19:54:10 10° NNW 19:55:13 11° N 19:56:16 10° NNE visible
31 Mar -1.0 19:03:09 10° NNW 19:04:10 11° N 19:05:10 10° NNE visible
31 Mar -1.2 20:39:37 10° NNW 20:41:03 15° N 20:41:03 15° N visible
01 Apr -1.3 19:49:06 10° NNW 19:50:49 13° NNE 19:52:20 11° NE visible
01 Apr -0.3 21:24:55 10° NW 21:25:05 11° NW 21:25:05 11° NW visible
02 Apr -1.1 18:58:31 10° NNW 18:59:45 12° N 19:00:59 10° NNE visible
02 Apr -1.8 20:34:21 10° NNW 20:36:21 23° N 20:36:21 23° N visible
03 Apr -1.8 19:43:48 10° NNW 19:46:16 19° NNE 19:47:39 15° NE visible
03 Apr -0.5 21:19:52 10° NW 21:20:24 14° NW 21:20:24 14° NW visible
